www.pogodaiklimat.ru
ПОГОДА в Оравице

Архив погоды в Оравице (Румыния)

Время
(UTC), дата
03 11.06
06 11.06
09 11.06
12 11.06
15 11.06
18 11.06
21 11.06
03 12.06
06 12.06
09 12.06
12 12.06
15 12.06
18 12.06
21 12.06
00 13.06
03 13.06
06 13.06
09 13.06
12 13.06
15 13.06
18 13.06
21 13.06
00 14.06
03 14.06
06 14.06
09 14.06
12 14.06
15 14.06
18 14.06
21 14.06
03 15.06
06 15.06
09 15.06
12 15.06
15 15.06
18 15.06
21 15.06
00 16.06
03 16.06
06 16.06
09 16.06
12 16.06
15 16.06
18 16.06
21 16.06
00 17.06
03 17.06
06 17.06
09 17.06
12 17.06
15 17.06
18 17.06
21 17.06
00 18.06
Ветер
(напр.,м/с)
Видим. Явления Облачность Т
(С)
Тd
(С)
f
(%)
Тe
(С)
Тes
(С)
Комфортность P
(гПа)
Po
(гПа)
Тmin
(С)
Tmax
(С)
R
(мм)
R24
(мм)
S
(см)
СВ 2 20 км слаб. дождь н/о +18.9 +16.5 86 +21 +21 комфорт 1008.0 972.1
ЮЗ 1-3 {3} 20 км 6/0
[Ac cast Cc]
+23.9 +17.0 65 +28 +33 душно 1007.9 972.6 +18.5 +24.1 0.8 0
ЮЗ 2-4 {4} 20 км 4/4 600 м
[Cu med, cong]
+26.7 +16.6 54 +30 +41 душно 1007.8 972.8
С 4-7 {9} 12 км гроза, ливневой дождь 9/9 600 м
[Cb cap]
+20.0 +17.6 86 +23 +24 комфорт 1010.5 974.6 0.0 0
СЗ 2-6 {7} 20 км {гроза} 6/3 600 м
[Sc diur, vesp Ac cuf Ci fib]
+23.0 +15.7 63 +27 +31 душно 1011.1 975.6
С 1-3 {4} 20 км {гроза} 4/4 600 м
[Sc diur, vesp]
+21.8 +15.6 68 +25 +25 комфорт 1011.4 975.7 +19.7 +28.9 0
СВ 2 20 км н/о +17.2 +14.7 85 +18 +18 1013.1 976.8
СВ 2 20 км н/о +16.0 +14.0 88 +16 +16 1014.1 977.6
В 1-2 {3} 20 км 5/0
[Ac trans Ci fib]
+21.1 +15.0 68 +24 +29 комфорт 1012.7 976.9 +15.6 +21.8 0.0
С 1-2 {3} 20 км 8/1 600 м
[Sc Ac As]
+23.7 +15.9 62 +27 +35 жарко 1011.9 976.4
ЮЗ 1-2 {4} 20 км 9/6 600 м
[Cb calv Ac As]
+23.7 +16.6 64 +27 +31 жарко 1012.4 976.9
З 3-6 {7} 20 км в посл. час ливневой дождь 9/9 600 м
[Cb calv]
+21.4 +16.6 74 +25 +26 комфорт 1012.9 977.1 0.4
З 2-3 {4} 20 км {ливн. дождь} 9/9 600 м
[Cb calv]
+20.5 +17.0 80 +24 +24 комфорт 1013.5 977.6 +20.5 +25.4
З 2 7000 м слаб. ливневой дождь н/о +17.9 +17.1 95 +18 +18 1015.3 979.0 0.1
ЮЗ 1 5000 м слаб. дождь н/о +16.7 +16.5 99 +18 +18 1015.6 979.1 6
СЗ 2 3900 м слаб. ливневой дождь н/о +16.7 +16.4 98 +17 +17 1015.6 979.1 1
СВ 1-2 {3} 2500 м слаб. морось {туман} 10/10 300 м
[St]
+16.3 +16.0 98 +17 +17 1016.0 979.5 +15.9 +20.5 0.3 7.5
З 2-3 {3} 9000 м дымка {морось} 10/6 600 м
[Sc Ac As]
+18.0 +16.7 92 +19 +21 1016.2 979.9 0.1
З 1-4 {4} 20 км {морось} 6/5 600 м
[Cu med, cong Ac trans]
+21.5 +16.7 74 +25 +34 комфорт 1013.9 978.1
С 4-7 {7} 18 км гроза, ливневой дождь 9/9 600 м
[Cb cap]
+20.3 +16.8 80 +23 +24 комфорт 1010.8 975.0 0.0
СЗ 3-6 {6} 9000 м дымка {гроза, ливн. дождь} 9/9 600 м
[Cb calv]
+17.2 +16.5 96 +17 +17 1013.7 977.4 +16.3 +24.4 5
СЗ 2 7000 м дымка н/о +15.8 +15.2 96 +16 +16 1015.0 978.5
З 2 6000 м слаб. ливневой дождь н/о +15.0 +14.5 97 +15 +15 1015.1 978.4
С 2 9000 м дымка н/о +13.5 +12.7 95 +13 +13 1015.4 978.6 0.2
СЗ 2-4 {4} 5000 м дымка 10/10 300 м
[St]
+12.9 +12.2 96 +12 +12 1016.5 979.5 +12.9 +17.2 5.7 0
СЗ 2-3 {4} 20 км 9/9 600 м
[Cb calv]
+15.5 +13.0 85 +15 +17 1016.5 979.9
СЗ 3-7 {7} 20 км 5/5 600 м
[Cu med, cong]
+19.7 +8.3 48 +21 +28 комфорт 1015.7 979.6 0
СЗ 2-5 {8} 20 км 5/5 600 м
[Cu med, cong]
+21.2 +8.1 43 +22 +25 комфорт 1015.3 979.4
С 1-4 {6} 20 км 6/3 600 м
[Sc diur, vesp Ci fib]
+20.0 +9.6 51 +22 +22 комфорт 1015.4 979.3 +12.9 +22.2 0
СВ 3 20 км н/о +15.4 +10.7 74 +15 +15 1016.0 979.4
СВ 2 20 км н/о +12.6 +9.1 79 +12 +12 1015.6 978.7
ЮВ 1-2 {2} 20 км ясно +17.8 +10.2 61 +19 +26 1014.8 978.5 +11.8 +19.9
С 2-6 {6} 20 км ясно +22.2 +10.1 46 +24 +41 комфорт 1013.8 978.1
З 1-5 {6} 20 км ясно +24.2 +8.7 37 +25 +45 комфорт 1012.6 977.2
ЮЗ 1-3 {5} 20 км ясно +25.7 +8.5 34 +26 +34 жарко 1011.3 976.0
С 1-2 {3} 20 км ясно +20.8 +10.1 50 +24 +24 комфорт 1011.3 975.5 +17.5 +26.1
В 2 20 км н/о +17.1 +9.3 60 +17 +17 1012.3 976.0
СВ 3 20 км н/о +16.8 +8.3 57 +17 +17 1011.8 975.5
СВ 3 20 км н/о +16.8 +8.5 58 +17 +17 1011.9 975.6
СВ 1-3 {4} 20 км ясно +22.2 +12.2 53 +25 +32 комфорт 1011.5 975.8 +16.0 +22.2
ЮЗ 2-6 {6} 20 км 1/0
[Ac lent]
+26.0 +11.9 41 +27 +43 жарко 1011.9 976.7
З 2-5 {5} 20 км 6/4 600 м
[Cu med, cong Ci fib]
+27.5 +12.6 40 +29 +39 жарко 1011.4 976.3
З 2-4 {5} 20 км 6/3 600 м
[Cu med, cong Ac trans]
+27.6 +11.7 37 +29 +32 жарко 1010.8 975.8
СВ 1-2 {2} 20 км 1/1 600 м
[Sc diur, vesp]
+24.1 +14.5 55 +27 +27 жарко 1011.2 975.8 +21.9 +28.6
СВ 2 20 км н/о +20.1 +13.2 64 +23 +23 комфорт 1012.8 976.8
СВ 2 20 км н/о +19.9 +14.0 69 +22 +22 комфорт 1014.1 978.1
СВ 2 20 км н/о +18.0 +15.2 84 +19 +19 1015.0 978.7 0.2
ЮЗ 1-3 {3} 20 км 6/6 600 м
[Sc]
+22.0 +16.2 70 +26 +29 душно 1015.1 979.3 +17.5 +24.2 0.2
СЗ 2-5 {6} 20 км 1/0
[Ac lent]
+25.9 +15.7 53 +29 +45 душно 1015.5 980.2
С 2-6 {7} 20 км 4/4 600 м
[Cu med, cong]
+28.8 +15.0 43 +31 +42 жарко 1015.1 980.1
СВ 3-6 {7} 20 км 4/3 600 м
[Cu med, cong Ci fib]
+27.6 +14.3 44 +30 +33 жарко 1014.8 979.7
С 2-4 {5} 20 км ясно +25.4 +14.8 52 +28 +28 жарко 1015.3 979.9 +22.1 +29.9
СВ 2 20 км н/о +20.2 +14.0 68 +23 +23 комфорт 1017.1 981.0
СВ 2 20 км н/о +20.2 +11.8 58 +23 +23 комфорт 1017.4 981.4
Местоположение метеостанции Оравица (Румыния): широта 45.03 долгота 21.68 высота над уровнем моря 309 м.
В архиве по умолчанию представлена погода в Оравице за последнюю неделю. Архивные данные за месяц целиком и за предыдущие месяцы, начиная с января 2011 года, Вы можете получить, выбрав интересующий диапазон дат из раскрывающегося списка и нажав кнопку "Найти!".
*Определитесь, кто Вы:
Внимание! Время в таблицах - всемирное. Для получения местного времени необходимо прибавить поправку, которая равна 2 ч.
Некоторые строки с данными для отдельных станций могут быть выделены курсивом. Это означает, что фактические данные отсутствуют по различным причинам, а приведенные значения являются расчетными модельными данными для данного пункта наблюдений.
Смотрите также архив погоды в соседних городах и на ближайших метеорологических станциях:
Партнеры нашего сайта:      
Пояснения к столбцам:
  • Ветер - указаны скорость ветра в м/с - средняя за 10 мин, порывы в срок и между сроками (в фигурных скобках) и направление, откуда дует ветер: С - северный,
  • СВ - северо-восточный, В - восточный, ЮВ - юго-восточный, Ю - южный, ЮЗ - юго-западный, З - западный, СЗ - северо-западный.
  • Видимость - горизонтальная дальность видимости в метрах или километрах. При видимости от 1 до 10 км при отсутствии осадков обычно наблюдается дымка, при ухудшении видимости до 1 км и менее - туман. В сухую погоду видимость может ухудшаться дымом, пылью или мглою.
  • Явления - указаны атмосферные явления, наблюдавшиеся в срок или в последний час перед сроком; фигурными скобками обозначены явления, наблюдавшиеся между сроками (за 1-3 часа до срока); квадратными скобками обозначены град или гололедные отложения с указанием их диаметра в мм.
  • Облачность - указаны через наклонную черту общая и нижняя облачность в баллах и высота нижней границы облаков в метрах; квадратными скобками обозначены формы облаков: Ci - перистые, Cs - перисто-слоистые, Cc - перисто-кучевые, Ac - высококучевые, As - высокослоистые, Sc - слоисто-кучевые, Ns - слоисто-дождевые, Cu - кучевые, Cb - кучево-дождевые. Подробнее классификацию облаков см. в Атласе облаков (PDF).
  • T - Температура воздуха - температура, измеренная на высоте 2 м над землей.
  • Td - Температура точки росы - температура, при понижении до которой содержащийся в воздухе водяной пар достигнет насыщения.
  • f - Относительная влажность воздуха - влажноcть воздуха, измеренная на высоте 2 м над землей.
  • Te - Эффективная температура - температура, которую ощущает одетый по сезону человек в тени. Характеристика душности погоды. При расчете учитывается влияние влажности воздуха и скорости ветра на теплоощущения человека.
  • Tes - Эффективная температура на солнце - температура, которую ощущает человек, с поправкой на солнечный нагрев. Характеристика знойности погоды. Зависит от высоты солнца над горизонтом, облачности и скорости ветра. Ночью, в пасмурную погоду, а также при ветре 12 м/с и более поправка равна нулю.
  • P - Атмосферное давление - приведенное к уровню моря атмосферное давление.
  • Po - Атмосферное давление - измеренное на уровне метеостанции атмосферное давление.
  • Tmin - Минимальная температура - минимум температуры воздуха на высоте 2 м над землей.
  • Tmax - Максимальная температура - максимум температуры воздуха на высоте 2 м над землей.
  • R - Количество осадков - Количество выпавших осадков за период времени, мм. При наведении курсора мыши на число - период времени, за который выпало указанное количество осадков.
  • R24 - Количество осадков - Количество выпавших осадков за 24 часа, мм.
  • S - Снежный покров - Высота снежного покрова, см. При наведении курсора мыши на число - состояние снежного покрова и степень покрытия местности в баллах.